UAL2378 KORD-KLAX

Flight info

Callsign UAL2378
Flight time 3h 57m
Altitude 34000
Route PEKUE PIPPN ROTTN LEFAM Q90 VARNE/N0459F360 Q90 DNERO ANJLL4
Aircraft A320/M-SDE3FGHIRWY/LB1

Departure

Time 2026-05-06 18:53
Airport Chicago O'Hare International Airport (KORD)

Arrival

Time 2026-05-06 22:50
Airport Los Angeles International Airport (KLAX)
Time Latitude Longitude Altitude Speed Heading
2026-05-06 18:28 41.97826 -87.90992 667 ft 0 kts 278°
2026-05-06 18:39 41.97826 -87.90991 668 ft 2 kts 278°
2026-05-06 18:39 41.97822 -87.90958 665 ft 4 kts 278°
2026-05-06 18:40 41.97818 -87.90909 665 ft 4 kts 192°
2026-05-06 18:40 41.97841 -87.90904 664 ft 2 kts 189°
2026-05-06 18:40 41.97842 -87.90903 664 ft 0 kts 189°
2026-05-06 18:42 41.97841 -87.90904 664 ft 0 kts 189°
2026-05-06 18:42 41.97836 -87.90905 666 ft 1 kts 189°
2026-05-06 18:42 41.97825 -87.90907 664 ft 2 kts 189°
2026-05-06 18:43 41.97804 -87.90912 666 ft 4 kts 189°
2026-05-06 18:43 41.97777 -87.90918 669 ft 4 kts 189°
2026-05-06 18:43 41.97746 -87.90925 669 ft 5 kts 189°
2026-05-06 18:43 41.97712 -87.90932 670 ft 5 kts 189°
2026-05-06 18:44 41.97679 -87.90940 669 ft 5 kts 189°
2026-05-06 18:44 41.97642 -87.90948 670 ft 6 kts 189°
2026-05-06 18:44 41.97604 -87.90967 671 ft 6 kts 224°
2026-05-06 18:44 41.97585 -87.91027 670 ft 8 kts 249°
2026-05-06 18:45 41.97560 -87.91108 668 ft 10 kts 239°
2026-05-06 18:45 41.97510 -87.91180 669 ft 11 kts 198°
2026-05-06 18:45 41.97444 -87.91131 671 ft 11 kts 139°
2026-05-06 18:45 41.97403 -87.91085 672 ft 11 kts 140°
2026-05-06 18:46 41.97321 -87.90990 671 ft 13 kts 138°
2026-05-06 18:46 41.97252 -87.90896 670 ft 15 kts 133°
2026-05-06 18:46 41.97183 -87.90783 667 ft 16 kts 118°
2026-05-06 18:46 41.97150 -87.90620 665 ft 20 kts 94°
2026-05-06 18:47 41.97141 -87.90430 667 ft 20 kts 93°
2026-05-06 18:47 41.97137 -87.90241 667 ft 21 kts 90°
2026-05-06 18:47 41.97138 -87.90038 667 ft 22 kts 90°
2026-05-06 18:47 41.97154 -87.89843 670 ft 21 kts 70°
2026-05-06 18:48 41.97162 -87.89711 667 ft 13 kts 148°
2026-05-06 18:48 41.97106 -87.89610 668 ft 15 kts 104°
2026-05-06 18:48 41.97088 -87.89470 667 ft 15 kts 105°
2026-05-06 18:48 41.97043 -87.89343 665 ft 17 kts 90°
2026-05-06 18:49 41.97044 -87.89169 662 ft 20 kts 90°
2026-05-06 18:49 41.97045 -87.88970 658 ft 23 kts 90°
2026-05-06 18:49 41.97044 -87.88785 656 ft 18 kts 90°
2026-05-06 18:49 41.97045 -87.88672 657 ft 18 kts 90°
2026-05-06 18:50 41.97045 -87.88497 658 ft 19 kts 90°
2026-05-06 18:50 41.97045 -87.88327 660 ft 10 kts 90°
2026-05-06 18:50 41.97045 -87.88239 661 ft 9 kts 90°
2026-05-06 18:50 41.97045 -87.88160 663 ft 8 kts 90°
2026-05-06 18:51 41.97045 -87.88129 663 ft 1 kts 90°
2026-05-06 18:51 41.97045 -87.88115 663 ft 1 kts 90°
2026-05-06 18:51 41.97045 -87.88102 664 ft 3 kts 91°
2026-05-06 18:51 41.97018 -87.88046 664 ft 8 kts 144°
2026-05-06 18:52 41.96978 -87.88028 665 ft 11 kts 165°
2026-05-06 18:52 41.96909 -87.88078 664 ft 19 kts 222°
2026-05-06 18:52 41.96645 -87.88390 663 ft 84 kts 221°
2026-05-06 18:52 41.96069 -87.89072 671 ft 135 kts 221°
2026-05-06 18:53 41.95292 -87.90016 885 ft 156 kts 225°
2026-05-06 18:53 41.94484 -87.90987 1563 ft 156 kts 225°
2026-05-06 18:53 41.93672 -87.91942 2284 ft 154 kts 226°
2026-05-06 18:53 41.93131 -87.93164 2641 ft 160 kts 262°
2026-05-06 18:54 41.92965 -87.94718 2897 ft 176 kts 261°
2026-05-06 18:54 41.92730 -87.96418 3190 ft 197 kts 260°
2026-05-06 18:54 41.92450 -87.98318 3426 ft 220 kts 259°
2026-05-06 18:54 41.92133 -88.00438 3779 ft 241 kts 259°
2026-05-06 18:55 41.91796 -88.02667 4535 ft 246 kts 259°
2026-05-06 18:55 41.91452 -88.04928 5355 ft 248 kts 259°
2026-05-06 18:55 41.91103 -88.07218 6135 ft 252 kts 259°
2026-05-06 18:55 41.90748 -88.09531 6899 ft 254 kts 259°
2026-05-06 18:56 41.90391 -88.11869 7637 ft 257 kts 259°
2026-05-06 18:56 41.90030 -88.14231 8416 ft 259 kts 259°
2026-05-06 18:56 41.89670 -88.16580 9145 ft 262 kts 259°
2026-05-06 18:56 41.89302 -88.18986 9881 ft 265 kts 259°
2026-05-06 18:57 41.88925 -88.21443 10302 ft 278 kts 259°
2026-05-06 18:57 41.88522 -88.24084 10454 ft 299 kts 259°
2026-05-06 18:57 41.88095 -88.26864 10884 ft 308 kts 259°
2026-05-06 18:57 41.87659 -88.29680 11556 ft 309 kts 259°
2026-05-06 18:58 41.87224 -88.32498 12276 ft 308 kts 259°
2026-05-06 18:58 41.86789 -88.35310 13023 ft 307 kts 259°
2026-05-06 18:58 41.86349 -88.38154 13769 ft 307 kts 258°
2026-05-06 18:58 41.85920 -88.40918 14402 ft 307 kts 258°
2026-05-06 18:59 41.85484 -88.43723 14990 ft 308 kts 258°
2026-05-06 18:59 41.85046 -88.46541 15559 ft 310 kts 258°
2026-05-06 18:59 41.84606 -88.49374 16159 ft 311 kts 258°
2026-05-06 18:59 41.84161 -88.52222 16722 ft 313 kts 258°
2026-05-06 19:00 41.83715 -88.55081 17295 ft 314 kts 258°
2026-05-06 19:00 41.83267 -88.57949 17876 ft 315 kts 258°
2026-05-06 19:00 41.82814 -88.60833 18431 ft 317 kts 258°
2026-05-06 19:00 41.82360 -88.63728 18964 ft 318 kts 258°
2026-05-06 19:01 41.81903 -88.66637 19512 ft 319 kts 258°
2026-05-06 19:01 41.81445 -88.69546 20074 ft 320 kts 258°
2026-05-06 19:01 41.80985 -88.72466 20623 ft 320 kts 257°
2026-05-06 19:01 41.80522 -88.75387 21160 ft 321 kts 257°
2026-05-06 19:02 41.80059 -88.78320 21691 ft 322 kts 257°
2026-05-06 19:02 41.79596 -88.81255 22201 ft 323 kts 257°
2026-05-06 19:02 41.79170 -88.84210 22701 ft 324 kts 258°
2026-05-06 19:02 41.78780 -88.87188 23199 ft 325 kts 258°
2026-05-06 19:03 41.78404 -88.90179 23666 ft 326 kts 258°
2026-05-06 19:03 41.78030 -88.93180 24056 ft 327 kts 258°
2026-05-06 19:03 41.77650 -88.96195 24438 ft 329 kts 258°
2026-05-06 19:03 41.77262 -88.99217 24818 ft 330 kts 258°
2026-05-06 19:04 41.76867 -89.02245 25163 ft 330 kts 258°
2026-05-06 19:04 41.76467 -89.05272 25560 ft 330 kts 258°
2026-05-06 19:04 41.76065 -89.08304 25948 ft 331 kts 258°
2026-05-06 19:04 41.75661 -89.11338 26326 ft 331 kts 258°
2026-05-06 19:05 41.75256 -89.14379 26694 ft 332 kts 258°
2026-05-06 19:05 41.74852 -89.17421 27059 ft 332 kts 258°
2026-05-06 19:05 41.74446 -89.20470 27427 ft 333 kts 258°
2026-05-06 19:05 41.74037 -89.23526 27785 ft 334 kts 258°
2026-05-06 19:06 41.73626 -89.26591 28099 ft 336 kts 258°
2026-05-06 19:06 41.73210 -89.29679 28399 ft 338 kts 258°
2026-05-06 19:06 41.72790 -89.32785 28727 ft 339 kts 258°
2026-05-06 19:06 41.72371 -89.35897 29065 ft 340 kts 258°
2026-05-06 19:07 41.71955 -89.39008 29512 ft 339 kts 258°
2026-05-06 19:07 41.71540 -89.42100 30027 ft 336 kts 258°
2026-05-06 19:07 41.71126 -89.45162 30458 ft 333 kts 258°
2026-05-06 19:07 41.70712 -89.48208 30846 ft 332 kts 258°
2026-05-06 19:08 41.70299 -89.51234 31222 ft 330 kts 258°
2026-05-06 19:08 41.69886 -89.54248 31587 ft 329 kts 258°
2026-05-06 19:08 41.69475 -89.57256 31949 ft 328 kts 259°
2026-05-06 19:08 41.69067 -89.60250 32313 ft 327 kts 259°
2026-05-06 19:09 41.68657 -89.63238 32670 ft 326 kts 259°
2026-05-06 19:09 41.68245 -89.66214 33033 ft 325 kts 259°
2026-05-06 19:09 41.67835 -89.69172 33396 ft 324 kts 259°
2026-05-06 19:09 41.67427 -89.72129 33764 ft 322 kts 259°
2026-05-06 19:10 41.67003 -89.75066 34107 ft 321 kts 258°
2026-05-06 19:10 41.66545 -89.77990 34369 ft 321 kts 258°
2026-05-06 19:10 41.66072 -89.80907 34581 ft 322 kts 258°
2026-05-06 19:10 41.65591 -89.83834 34780 ft 322 kts 257°
2026-05-06 19:11 41.65109 -89.86763 34967 ft 323 kts 258°
2026-05-06 19:11 41.64628 -89.89702 35151 ft 324 kts 258°
2026-05-06 19:11 41.64145 -89.92654 35332 ft 325 kts 258°
2026-05-06 19:11 41.63661 -89.95608 35507 ft 326 kts 257°
2026-05-06 19:12 41.63175 -89.98570 35682 ft 327 kts 258°
2026-05-06 19:12 41.62691 -90.01545 35847 ft 328 kts 258°
2026-05-06 19:12 41.62209 -90.04526 36003 ft 329 kts 258°
2026-05-06 19:13 41.61228 -90.10564 36068 ft 337 kts 257°
2026-05-06 19:13 41.60222 -90.16673 36068 ft 340 kts 257°
2026-05-06 19:14 41.59207 -90.22845 36069 ft 340 kts 257°
2026-05-06 19:14 41.58180 -90.29063 36073 ft 340 kts 257°
2026-05-06 19:15 41.57158 -90.35190 36079 ft 341 kts 257°
2026-05-06 19:15 41.56129 -90.41369 36051 ft 341 kts 257°
2026-05-06 19:16 41.55098 -90.47539 36079 ft 340 kts 257°
2026-05-06 19:16 41.54063 -90.53688 36092 ft 339 kts 257°
2026-05-06 19:17 41.53037 -90.59820 36093 ft 338 kts 257°
2026-05-06 19:17 41.52009 -90.65941 36101 ft 338 kts 257°
2026-05-06 19:18 41.50971 -90.72053 36101 ft 337 kts 257°
2026-05-06 19:18 41.49930 -90.78153 36094 ft 338 kts 257°
2026-05-06 19:19 41.48886 -90.84265 36088 ft 338 kts 257°
2026-05-06 19:19 41.47840 -90.90388 36086 ft 339 kts 257°
2026-05-06 19:20 41.46792 -90.96520 36112 ft 339 kts 257°
2026-05-06 19:20 41.45736 -91.02653 36117 ft 340 kts 257°
2026-05-06 19:21 41.44675 -91.08789 36120 ft 340 kts 257°
2026-05-06 19:21 41.43609 -91.14920 36138 ft 340 kts 257°
2026-05-06 19:22 41.42540 -91.21064 36113 ft 341 kts 257°
2026-05-06 19:22 41.41465 -91.27235 36106 ft 343 kts 257°
2026-05-06 19:23 41.40377 -91.33423 36106 ft 344 kts 257°
2026-05-06 19:23 41.39285 -91.39621 36108 ft 344 kts 257°
2026-05-06 19:24 41.38190 -91.45833 36110 ft 345 kts 257°
2026-05-06 19:24 41.37087 -91.52050 36113 ft 345 kts 257°
2026-05-06 19:25 41.35987 -91.58229 36108 ft 346 kts 257°
2026-05-06 19:25 41.34876 -91.64466 36107 ft 347 kts 257°
2026-05-06 19:26 41.33755 -91.70748 36109 ft 347 kts 257°
2026-05-06 19:26 41.32647 -91.76941 36102 ft 345 kts 257°
2026-05-06 19:27 41.31528 -91.83173 36119 ft 343 kts 256°
2026-05-06 19:27 41.30420 -91.89293 36132 ft 342 kts 256°
2026-05-06 19:28 41.29302 -91.95439 36135 ft 342 kts 256°
2026-05-06 19:28 41.28173 -92.01635 36123 ft 343 kts 256°
2026-05-06 19:29 41.27060 -92.07753 36130 ft 343 kts 256°
2026-05-06 19:29 41.25932 -92.13924 36134 ft 344 kts 256°
2026-05-06 19:30 41.24795 -92.20097 36139 ft 344 kts 256°
2026-05-06 19:30 41.23656 -92.26270 36142 ft 344 kts 256°
2026-05-06 19:31 41.22514 -92.32445 36154 ft 345 kts 256°
2026-05-06 19:31 41.20802 -92.41728 36150 ft 345 kts 256°
2026-05-06 19:32 41.19648 -92.47925 36150 ft 346 kts 256°
2026-05-06 19:32 41.18484 -92.54122 36147 ft 346 kts 256°
2026-05-06 19:33 41.17325 -92.60314 36160 ft 346 kts 256°
2026-05-06 19:33 41.16161 -92.66512 36146 ft 346 kts 256°
2026-05-06 19:34 41.14988 -92.72707 36140 ft 347 kts 256°
2026-05-06 19:34 41.14009 -92.77882 36130 ft 348 kts 256°
2026-05-06 19:35 41.12822 -92.84110 36123 ft 349 kts 256°
2026-05-06 19:35 41.11634 -92.90353 36124 ft 349 kts 256°
2026-05-06 19:36 41.10443 -92.96602 36128 ft 350 kts 256°
2026-05-06 19:36 41.09244 -93.02854 36129 ft 350 kts 256°
2026-05-06 19:37 41.08047 -93.09090 36129 ft 349 kts 256°
2026-05-06 19:37 41.06849 -93.15321 36130 ft 349 kts 256°
2026-05-06 19:38 41.05639 -93.21549 36131 ft 349 kts 256°
2026-05-06 19:38 41.04428 -93.27771 36133 ft 349 kts 256°
2026-05-06 19:39 41.03220 -93.33988 36131 ft 349 kts 256°
2026-05-06 19:39 41.02010 -93.40206 36132 ft 348 kts 256°
2026-05-06 19:40 41.00790 -93.46415 36135 ft 348 kts 255°
2026-05-06 19:40 40.99551 -93.52614 36135 ft 348 kts 252°
2026-05-06 19:41 40.97864 -93.58630 36138 ft 349 kts 251°
2026-05-06 19:41 40.96156 -93.64636 36141 ft 349 kts 251°
2026-05-06 19:42 40.94445 -93.70640 36143 ft 349 kts 251°
2026-05-06 19:42 40.92728 -93.76633 36148 ft 349 kts 251°
2026-05-06 19:43 40.91011 -93.82631 36140 ft 349 kts 251°
2026-05-06 19:43 40.89299 -93.88587 36140 ft 349 kts 251°
2026-05-06 19:44 40.87565 -93.94619 36142 ft 349 kts 251°
2026-05-06 19:44 40.85837 -94.00615 36145 ft 349 kts 250°
2026-05-06 19:45 40.84109 -94.06610 36139 ft 349 kts 250°
2026-05-06 19:45 40.82376 -94.12587 36137 ft 348 kts 250°
2026-05-06 19:46 40.80645 -94.18538 36152 ft 347 kts 250°
2026-05-06 19:46 40.78916 -94.24463 36146 ft 346 kts 250°
2026-05-06 19:47 40.77193 -94.30386 36156 ft 346 kts 250°
2026-05-06 19:47 40.75469 -94.36301 36153 ft 345 kts 250°
2026-05-06 19:48 40.73738 -94.42207 36150 ft 345 kts 250°
2026-05-06 19:48 40.72000 -94.48109 36155 ft 345 kts 250°
2026-05-06 19:49 40.70263 -94.54011 36164 ft 345 kts 250°
2026-05-06 19:49 40.68521 -94.59915 36168 ft 346 kts 250°
2026-05-06 19:50 40.66784 -94.65805 36140 ft 348 kts 250°
2026-05-06 19:50 40.65018 -94.71759 36144 ft 350 kts 250°
2026-05-06 19:51 40.63239 -94.77736 36144 ft 351 kts 250°
2026-05-06 19:51 40.61458 -94.83717 36146 ft 351 kts 250°
2026-05-06 19:52 40.59677 -94.89704 36153 ft 351 kts 250°
2026-05-06 19:52 40.57892 -94.95690 36150 ft 352 kts 250°
2026-05-06 19:53 40.56092 -95.01684 36146 ft 353 kts 250°
2026-05-06 19:53 40.54285 -95.07693 36143 ft 354 kts 250°
2026-05-06 19:54 40.52471 -95.13713 36147 ft 355 kts 250°
2026-05-06 19:54 40.50655 -95.19745 36152 ft 355 kts 250°
2026-05-06 19:55 40.48827 -95.25780 36152 ft 356 kts 250°
2026-05-06 19:55 40.47001 -95.31818 36156 ft 356 kts 250°
2026-05-06 19:56 40.45169 -95.37856 36157 ft 357 kts 249°
2026-05-06 19:56 40.43327 -95.43913 36147 ft 358 kts 250°
2026-05-06 19:57 40.41474 -95.49982 36146 ft 359 kts 249°
2026-05-06 19:57 40.39616 -95.56066 36151 ft 359 kts 249°
2026-05-06 19:58 40.37744 -95.62145 36154 ft 359 kts 249°
2026-05-06 19:58 40.35877 -95.68224 36159 ft 359 kts 249°
2026-05-06 19:59 40.34013 -95.74301 36143 ft 360 kts 249°
2026-05-06 19:59 40.32137 -95.80378 36127 ft 360 kts 249°
2026-05-06 20:00 40.30250 -95.86442 36139 ft 359 kts 249°
2026-05-06 20:00 40.28371 -95.92498 36152 ft 359 kts 249°
2026-05-06 20:01 40.26492 -95.98549 36156 ft 359 kts 249°
2026-05-06 20:01 40.24616 -96.04594 36159 ft 359 kts 249°
2026-05-06 20:02 40.22730 -96.10640 36165 ft 359 kts 249°
2026-05-06 20:02 40.20827 -96.16693 36153 ft 360 kts 249°
2026-05-06 20:03 40.18923 -96.22770 36144 ft 362 kts 249°
2026-05-06 20:03 40.17013 -96.28857 36149 ft 362 kts 250°
2026-05-06 20:04 40.15587 -96.35162 36153 ft 362 kts 254°
2026-05-06 20:04 40.14243 -96.41508 36155 ft 362 kts 254°
2026-05-06 20:05 40.12895 -96.47850 36153 ft 363 kts 254°
2026-05-06 20:05 40.11530 -96.54200 36150 ft 363 kts 254°
2026-05-06 20:06 40.10163 -96.60562 36156 ft 364 kts 254°
2026-05-06 20:06 40.08803 -96.66893 36159 ft 364 kts 254°
2026-05-06 20:07 40.07429 -96.73267 36167 ft 365 kts 254°
2026-05-06 20:07 40.06050 -96.79637 36169 ft 365 kts 254°
2026-05-06 20:08 40.04662 -96.86007 36143 ft 365 kts 254°
2026-05-06 20:08 40.03280 -96.92369 36159 ft 365 kts 254°
2026-05-06 20:09 40.01892 -96.98733 36162 ft 365 kts 254°
2026-05-06 20:09 40.00498 -97.05092 36163 ft 364 kts 254°
2026-05-06 20:10 39.99103 -97.11447 36165 ft 364 kts 253°
2026-05-06 20:10 39.97702 -97.17797 36163 ft 364 kts 253°
2026-05-06 20:11 39.96294 -97.24142 36165 ft 364 kts 253°
2026-05-06 20:11 39.94895 -97.30484 36164 ft 364 kts 254°
2026-05-06 20:12 39.93492 -97.36828 36166 ft 364 kts 253°
2026-05-06 20:12 39.92075 -97.43164 36162 ft 364 kts 253°
2026-05-06 20:13 39.90655 -97.49497 36165 ft 364 kts 253°
2026-05-06 20:13 39.89235 -97.55832 36166 ft 364 kts 253°
2026-05-06 20:14 39.87812 -97.62162 36160 ft 365 kts 253°
2026-05-06 20:14 39.86382 -97.68509 36161 ft 366 kts 253°
2026-05-06 20:15 39.84941 -97.74854 36167 ft 366 kts 253°
2026-05-06 20:15 39.83489 -97.81206 36165 ft 366 kts 253°
2026-05-06 20:16 39.82038 -97.87554 36161 ft 366 kts 253°
2026-05-06 20:16 39.80591 -97.93871 36175 ft 367 kts 253°
2026-05-06 20:17 39.79123 -98.00224 36168 ft 367 kts 253°
2026-05-06 20:17 39.77657 -98.06581 36164 ft 367 kts 253°
2026-05-06 20:18 39.76190 -98.12950 36167 ft 368 kts 253°
2026-05-06 20:18 39.74713 -98.19322 36171 ft 368 kts 253°
2026-05-06 20:19 39.73225 -98.25686 36160 ft 368 kts 253°
2026-05-06 20:19 39.71737 -98.32043 36173 ft 368 kts 253°
2026-05-06 20:20 39.70504 -98.37326 36182 ft 368 kts 253°
2026-05-06 20:20 39.69009 -98.43724 36184 ft 368 kts 253°
2026-05-06 20:21 39.67512 -98.50080 36188 ft 368 kts 253°
2026-05-06 20:21 39.66020 -98.56396 36190 ft 368 kts 253°
2026-05-06 20:22 39.64518 -98.62748 36193 ft 368 kts 253°
2026-05-06 20:22 39.63003 -98.69147 36195 ft 369 kts 253°
2026-05-06 20:23 39.61498 -98.75503 36195 ft 369 kts 252°
2026-05-06 20:23 39.59982 -98.81860 36200 ft 369 kts 252°
2026-05-06 20:24 39.58458 -98.88228 36199 ft 370 kts 252°
2026-05-06 20:24 39.56935 -98.94593 36198 ft 370 kts 252°
2026-05-06 20:25 39.55407 -99.00963 36199 ft 370 kts 252°
2026-05-06 20:25 39.53871 -99.07329 36197 ft 370 kts 252°
2026-05-06 20:26 39.52330 -99.13695 36197 ft 371 kts 252°
2026-05-06 20:26 39.50780 -99.20063 36198 ft 371 kts 252°
2026-05-06 20:27 39.49231 -99.26443 36200 ft 371 kts 252°
2026-05-06 20:27 39.47680 -99.32824 36205 ft 372 kts 252°
2026-05-06 20:28 39.46121 -99.39201 36216 ft 372 kts 252°
2026-05-06 20:28 39.44557 -99.45575 36217 ft 372 kts 252°
2026-05-06 20:29 39.42989 -99.51955 36210 ft 372 kts 252°
2026-05-06 20:29 39.41418 -99.58346 36211 ft 373 kts 252°
2026-05-06 20:30 39.39059 -99.67881 36211 ft 372 kts 252°
2026-05-06 20:31 39.37480 -99.74253 36219 ft 372 kts 252°
2026-05-06 20:31 39.35905 -99.80614 36222 ft 371 kts 252°
2026-05-06 20:32 39.34320 -99.86960 36210 ft 372 kts 252°
2026-05-06 20:32 39.32722 -99.93323 36207 ft 373 kts 252°
2026-05-06 20:33 39.31125 -99.99700 36208 ft 374 kts 252°
2026-05-06 20:33 39.29527 -100.06085 36211 ft 374 kts 252°
2026-05-06 20:34 39.27916 -100.12476 36216 ft 374 kts 252°
2026-05-06 20:34 39.26300 -100.18867 36217 ft 375 kts 251°
2026-05-06 20:35 39.24680 -100.25260 36206 ft 376 kts 252°
2026-05-06 20:35 39.23186 -100.31727 36209 ft 377 kts 255°
2026-05-06 20:36 39.21948 -100.38292 36210 ft 377 kts 256°
2026-05-06 20:36 39.20723 -100.44868 36205 ft 377 kts 255°
2026-05-06 20:37 39.19436 -100.51428 36205 ft 377 kts 255°
2026-05-06 20:37 39.18124 -100.57981 36198 ft 378 kts 255°
2026-05-06 20:38 39.16807 -100.64540 36185 ft 379 kts 255°
2026-05-06 20:38 39.15481 -100.71121 36182 ft 380 kts 255°
2026-05-06 20:39 39.14155 -100.77713 36184 ft 380 kts 255°
2026-05-06 20:39 39.12830 -100.84312 36188 ft 381 kts 255°
2026-05-06 20:40 39.11499 -100.90918 36196 ft 381 kts 255°
2026-05-06 20:40 39.10159 -100.97527 36202 ft 382 kts 255°
2026-05-06 20:41 39.08807 -101.04134 36208 ft 382 kts 255°
2026-05-06 20:41 39.07457 -101.10740 36210 ft 382 kts 255°
2026-05-06 20:42 39.06110 -101.17339 36211 ft 381 kts 255°
2026-05-06 20:42 39.04754 -101.23933 36213 ft 381 kts 255°
2026-05-06 20:43 39.03390 -101.30523 36213 ft 381 kts 255°
2026-05-06 20:43 39.02026 -101.37119 36170 ft 382 kts 255°
2026-05-06 20:44 39.00660 -101.43726 36183 ft 382 kts 255°
2026-05-06 20:44 38.99287 -101.50334 36189 ft 383 kts 255°
2026-05-06 20:45 38.97907 -101.56948 36201 ft 383 kts 255°
2026-05-06 20:45 38.96522 -101.63563 36200 ft 383 kts 255°
2026-05-06 20:46 38.95135 -101.70173 36201 ft 384 kts 255°
2026-05-06 20:46 38.93749 -101.76758 36194 ft 385 kts 255°
2026-05-06 20:47 38.92345 -101.83395 36200 ft 385 kts 255°
2026-05-06 20:47 38.90937 -101.90032 36192 ft 386 kts 255°
2026-05-06 20:48 38.89528 -101.96675 36189 ft 386 kts 255°
2026-05-06 20:48 38.88115 -102.03318 36199 ft 386 kts 255°
2026-05-06 20:49 38.86691 -102.09960 36183 ft 387 kts 255°
2026-05-06 20:49 38.85265 -102.16630 36184 ft 388 kts 255°
2026-05-06 20:50 38.83828 -102.23312 36186 ft 389 kts 255°
2026-05-06 20:50 38.82379 -102.30006 36195 ft 390 kts 255°
2026-05-06 20:51 38.80925 -102.36700 36193 ft 390 kts 255°
2026-05-06 20:51 38.79468 -102.43406 36185 ft 391 kts 255°
2026-05-06 20:52 38.78005 -102.50124 36175 ft 392 kts 255°
2026-05-06 20:52 38.76537 -102.56857 36189 ft 393 kts 255°
2026-05-06 20:53 38.75060 -102.63599 36193 ft 393 kts 255°
2026-05-06 20:53 38.73577 -102.70342 36197 ft 393 kts 255°
2026-05-06 20:54 38.72091 -102.77082 36198 ft 393 kts 255°
2026-05-06 20:54 38.70609 -102.83788 36184 ft 394 kts 255°
2026-05-06 20:55 38.69103 -102.90589 36182 ft 395 kts 255°
2026-05-06 20:55 38.67596 -102.97355 36182 ft 396 kts 255°
2026-05-06 20:56 38.66079 -103.04124 36186 ft 396 kts 255°
2026-05-06 20:56 38.64557 -103.10898 36185 ft 396 kts 255°
2026-05-06 20:57 38.63039 -103.17675 36172 ft 396 kts 256°
2026-05-06 20:57 38.61516 -103.24456 36172 ft 397 kts 256°
2026-05-06 20:58 38.59983 -103.31249 36181 ft 398 kts 255°
2026-05-06 20:58 38.58441 -103.38048 36180 ft 398 kts 255°
2026-05-06 20:59 38.56901 -103.44832 36161 ft 397 kts 255°
2026-05-06 20:59 38.55358 -103.51607 36156 ft 397 kts 255°
2026-05-06 21:00 38.53818 -103.58337 36161 ft 397 kts 255°
2026-05-06 21:00 38.52267 -103.65106 36170 ft 397 kts 255°
2026-05-06 21:01 38.50711 -103.71872 36174 ft 397 kts 255°
2026-05-06 21:01 38.49145 -103.78644 36183 ft 398 kts 255°
2026-05-06 21:02 38.47581 -103.85418 36183 ft 398 kts 255°
2026-05-06 21:02 38.46005 -103.92193 36173 ft 398 kts 256°
2026-05-06 21:03 38.44691 -103.97830 36183 ft 399 kts 256°
2026-05-06 21:03 38.43109 -104.04611 36186 ft 399 kts 256°
2026-05-06 21:04 38.41524 -104.11398 36207 ft 399 kts 256°
2026-05-06 21:04 38.39934 -104.18187 36208 ft 400 kts 255°
2026-05-06 21:05 38.38338 -104.24970 36194 ft 400 kts 256°
2026-05-06 21:05 38.36733 -104.31758 36193 ft 400 kts 256°
2026-05-06 21:06 38.35121 -104.38556 36192 ft 401 kts 256°
2026-05-06 21:06 38.33510 -104.45356 36195 ft 401 kts 256°
2026-05-06 21:07 38.31898 -104.52151 36198 ft 401 kts 256°
2026-05-06 21:07 38.30274 -104.58950 36200 ft 401 kts 255°
2026-05-06 21:08 38.28647 -104.65737 36204 ft 401 kts 255°
2026-05-06 21:08 38.27012 -104.72528 36211 ft 401 kts 255°
2026-05-06 21:09 38.25381 -104.79313 36220 ft 401 kts 255°
2026-05-06 21:09 38.23744 -104.86098 36228 ft 401 kts 255°
2026-05-06 21:10 38.22102 -104.92879 36221 ft 401 kts 255°
2026-05-06 21:10 38.20453 -104.99670 36213 ft 402 kts 255°
2026-05-06 21:11 38.18794 -105.06471 36215 ft 403 kts 255°
2026-05-06 21:11 38.17130 -105.13277 36215 ft 404 kts 255°
2026-05-06 21:12 38.15461 -105.20093 36223 ft 404 kts 255°
2026-05-06 21:12 38.13788 -105.26912 36216 ft 404 kts 255°
2026-05-06 21:13 38.12110 -105.33736 36194 ft 405 kts 255°
2026-05-06 21:13 38.10425 -105.40577 36178 ft 407 kts 255°
2026-05-06 21:14 38.08726 -105.47433 36163 ft 407 kts 255°
2026-05-06 21:14 38.07036 -105.54229 36143 ft 406 kts 255°
2026-05-06 21:15 38.05325 -105.61103 36150 ft 406 kts 255°
2026-05-06 21:15 38.03615 -105.67928 36092 ft 406 kts 256°
2026-05-06 21:16 38.01914 -105.74719 36102 ft 407 kts 255°
2026-05-06 21:16 38.00140 -105.81545 36074 ft 408 kts 253°
2026-05-06 21:17 37.98177 -105.88304 36075 ft 409 kts 252°
2026-05-06 21:17 37.96164 -105.95050 36056 ft 409 kts 253°
2026-05-06 21:18 37.94183 -106.01808 36042 ft 410 kts 253°
2026-05-06 21:18 37.92212 -106.08592 36033 ft 411 kts 253°
2026-05-06 21:19 37.90229 -106.15397 36047 ft 413 kts 253°
2026-05-06 21:19 37.88231 -106.22213 36062 ft 413 kts 253°
2026-05-06 21:20 37.86226 -106.29030 36083 ft 413 kts 253°
2026-05-06 21:20 37.84225 -106.35848 36058 ft 414 kts 253°
2026-05-06 21:21 37.82215 -106.42690 36058 ft 416 kts 253°
2026-05-06 21:21 37.80183 -106.49551 36057 ft 417 kts 252°
2026-05-06 21:22 37.78141 -106.56419 36050 ft 418 kts 253°
2026-05-06 21:22 37.76098 -106.63304 36038 ft 419 kts 252°
2026-05-06 21:23 37.74048 -106.70192 36011 ft 419 kts 253°
2026-05-06 21:23 37.71986 -106.77095 35971 ft 421 kts 253°
2026-05-06 21:24 37.69907 -106.84027 35959 ft 423 kts 253°
2026-05-06 21:24 37.67818 -106.90967 35958 ft 424 kts 252°
2026-05-06 21:25 37.65739 -106.97884 35959 ft 424 kts 253°
2026-05-06 21:25 37.63643 -107.04853 35967 ft 425 kts 252°
2026-05-06 21:26 37.61535 -107.11821 35961 ft 425 kts 253°
2026-05-06 21:26 37.59420 -107.18797 35973 ft 426 kts 253°
2026-05-06 21:27 37.57299 -107.25774 35981 ft 427 kts 253°
2026-05-06 21:27 37.55173 -107.32750 35966 ft 427 kts 253°
2026-05-06 21:28 37.53040 -107.39735 35962 ft 427 kts 253°
2026-05-06 21:28 37.50903 -107.46723 35943 ft 428 kts 253°
2026-05-06 21:29 37.48754 -107.53727 35953 ft 429 kts 253°
2026-05-06 21:29 37.46590 -107.60734 35970 ft 430 kts 253°
2026-05-06 21:30 37.44422 -107.67758 35978 ft 431 kts 253°
2026-05-06 21:30 37.42253 -107.74779 35955 ft 431 kts 253°
2026-05-06 21:31 37.40071 -107.81812 35963 ft 432 kts 253°
2026-05-06 21:31 37.37886 -107.88859 35981 ft 433 kts 253°
2026-05-06 21:32 37.35686 -107.95917 35972 ft 434 kts 253°
2026-05-06 21:32 37.32363 -108.06507 35977 ft 435 kts 253°
2026-05-06 21:33 37.30145 -108.13579 35993 ft 435 kts 253°
2026-05-06 21:33 37.27920 -108.20650 36015 ft 435 kts 252°
2026-05-06 21:34 37.25695 -108.27720 36000 ft 435 kts 253°
2026-05-06 21:34 37.23468 -108.34786 36003 ft 436 kts 252°
2026-05-06 21:35 37.21246 -108.41803 36002 ft 436 kts 252°
2026-05-06 21:35 37.18984 -108.48923 35951 ft 438 kts 253°
2026-05-06 21:36 37.16720 -108.56036 35964 ft 439 kts 252°
2026-05-06 21:36 37.14468 -108.63084 35995 ft 438 kts 252°
2026-05-06 21:37 37.12192 -108.70199 36000 ft 436 kts 252°
2026-05-06 21:37 37.09951 -108.77203 35991 ft 436 kts 252°
2026-05-06 21:38 37.07684 -108.84259 35948 ft 438 kts 252°
2026-05-06 21:38 37.05396 -108.91354 35939 ft 441 kts 252°
2026-05-06 21:39 37.03091 -108.98478 35942 ft 442 kts 252°
2026-05-06 21:39 37.00777 -109.05616 35944 ft 443 kts 252°
2026-05-06 21:40 36.98459 -109.12770 35919 ft 444 kts 252°
2026-05-06 21:40 36.96108 -109.19994 35922 ft 447 kts 252°
2026-05-06 21:41 36.93767 -109.27167 35924 ft 450 kts 252°
2026-05-06 21:41 36.91402 -109.34408 35931 ft 451 kts 252°
2026-05-06 21:42 36.89025 -109.41666 35930 ft 452 kts 252°
2026-05-06 21:42 36.86634 -109.48932 35908 ft 453 kts 252°
2026-05-06 21:43 36.84230 -109.56227 35905 ft 456 kts 252°
2026-05-06 21:43 36.81810 -109.63554 35911 ft 457 kts 252°
2026-05-06 21:44 36.79380 -109.70901 35915 ft 458 kts 252°
2026-05-06 21:44 36.76942 -109.78256 35915 ft 459 kts 252°
2026-05-06 21:45 36.74493 -109.85621 35896 ft 460 kts 251°
2026-05-06 21:45 36.72027 -109.92990 35904 ft 461 kts 251°
2026-05-06 21:46 36.69554 -110.00357 35911 ft 461 kts 251°
2026-05-06 21:46 36.67078 -110.07731 35922 ft 462 kts 251°
2026-05-06 21:47 36.64602 -110.15117 35907 ft 462 kts 251°
2026-05-06 21:47 36.62535 -110.21251 35924 ft 463 kts 251°
2026-05-06 21:48 36.60036 -110.28634 35923 ft 463 kts 251°
2026-05-06 21:48 36.57530 -110.36018 35920 ft 463 kts 251°
2026-05-06 21:49 36.55026 -110.43394 35927 ft 463 kts 251°
2026-05-06 21:49 36.52525 -110.50780 35904 ft 464 kts 251°
2026-05-06 21:50 36.50013 -110.58170 35904 ft 464 kts 251°
2026-05-06 21:50 36.47482 -110.65558 35901 ft 465 kts 251°
2026-05-06 21:51 36.44945 -110.72945 35908 ft 465 kts 251°
2026-05-06 21:51 36.42405 -110.80326 35903 ft 465 kts 251°
2026-05-06 21:52 36.39858 -110.87714 35881 ft 466 kts 251°
2026-05-06 21:52 36.37308 -110.95101 35885 ft 466 kts 251°
2026-05-06 21:53 36.34755 -111.02499 35888 ft 467 kts 251°
2026-05-06 21:53 36.32189 -111.09895 35893 ft 467 kts 251°
2026-05-06 21:54 36.29613 -111.17289 35877 ft 467 kts 251°
2026-05-06 21:54 36.27030 -111.24681 35881 ft 468 kts 251°
2026-05-06 21:55 36.24445 -111.32076 35884 ft 468 kts 251°
2026-05-06 21:55 36.21855 -111.39469 35876 ft 468 kts 250°
2026-05-06 21:56 36.19266 -111.46853 35901 ft 468 kts 250°
2026-05-06 21:56 36.16666 -111.54242 35921 ft 468 kts 250°
2026-05-06 21:57 36.14062 -111.61622 35927 ft 468 kts 250°
2026-05-06 21:57 36.11452 -111.68989 35924 ft 467 kts 250°
2026-05-06 21:58 36.08840 -111.76360 35954 ft 468 kts 250°
2026-05-06 21:58 36.06237 -111.83732 36016 ft 468 kts 251°
2026-05-06 21:59 36.03833 -111.91190 36081 ft 467 kts 253°
2026-05-06 21:59 36.01516 -111.98693 36140 ft 468 kts 253°
2026-05-06 22:00 35.99157 -112.06188 36189 ft 468 kts 252°
2026-05-06 22:00 35.96761 -112.13612 36173 ft 469 kts 252°
2026-05-06 22:01 35.94340 -112.21090 36159 ft 470 kts 252°
2026-05-06 22:01 35.91915 -112.28585 36150 ft 471 kts 252°
2026-05-06 22:02 35.89488 -112.36087 36117 ft 471 kts 252°
2026-05-06 22:02 35.87056 -112.43594 36086 ft 471 kts 252°
2026-05-06 22:03 35.84613 -112.51093 36001 ft 472 kts 251°
2026-05-06 22:03 35.82161 -112.58602 36011 ft 472 kts 251°
2026-05-06 22:04 35.79710 -112.66108 36015 ft 473 kts 251°
2026-05-06 22:04 35.77255 -112.73621 36016 ft 473 kts 251°
2026-05-06 22:05 35.74787 -112.81129 36007 ft 473 kts 251°
2026-05-06 22:05 35.72307 -112.88626 36010 ft 473 kts 251°
2026-05-06 22:06 35.69824 -112.96130 36016 ft 474 kts 251°
2026-05-06 22:06 35.67342 -113.03635 36010 ft 474 kts 251°
2026-05-06 22:07 35.64858 -113.11133 35992 ft 474 kts 251°
2026-05-06 22:07 35.62355 -113.18630 35983 ft 474 kts 251°
2026-05-06 22:08 35.59846 -113.26130 35976 ft 475 kts 251°
2026-05-06 22:08 35.57338 -113.33642 35979 ft 475 kts 251°
2026-05-06 22:09 35.54830 -113.41154 35972 ft 475 kts 251°
2026-05-06 22:09 35.52310 -113.48657 35964 ft 476 kts 251°
2026-05-06 22:10 35.49780 -113.56161 35963 ft 476 kts 250°
2026-05-06 22:10 35.47240 -113.63660 35973 ft 476 kts 250°
2026-05-06 22:11 35.44695 -113.71152 36012 ft 476 kts 250°
2026-05-06 22:11 35.42152 -113.78653 36023 ft 476 kts 250°
2026-05-06 22:12 35.39601 -113.86157 36051 ft 477 kts 250°
2026-05-06 22:12 35.37041 -113.93656 36075 ft 477 kts 250°
2026-05-06 22:13 35.34477 -114.01165 36084 ft 478 kts 250°
2026-05-06 22:13 35.31905 -114.08672 36056 ft 478 kts 250°
2026-05-06 22:14 35.29326 -114.16176 36034 ft 479 kts 250°
2026-05-06 22:14 35.26734 -114.23686 36012 ft 479 kts 250°
2026-05-06 22:15 35.24136 -114.31198 35989 ft 479 kts 250°
2026-05-06 22:15 35.21538 -114.38705 35956 ft 480 kts 250°
2026-05-06 22:16 35.18935 -114.46216 35959 ft 480 kts 250°
2026-05-06 22:16 35.16328 -114.53726 35973 ft 480 kts 250°
2026-05-06 22:17 35.13706 -114.61229 35994 ft 480 kts 250°
2026-05-06 22:17 35.11092 -114.68730 35995 ft 480 kts 250°
2026-05-06 22:18 35.08487 -114.76239 35992 ft 480 kts 250°
2026-05-06 22:18 35.05878 -114.83736 36006 ft 480 kts 250°
2026-05-06 22:19 35.03237 -114.91222 36001 ft 481 kts 248°
2026-05-06 22:19 35.00253 -114.98527 35996 ft 481 kts 244°
2026-05-06 22:20 34.97013 -115.05678 36001 ft 482 kts 243°
2026-05-06 22:20 34.93784 -115.12850 35997 ft 483 kts 244°
2026-05-06 22:21 34.90635 -115.20084 36009 ft 483 kts 245°
2026-05-06 22:21 34.87505 -115.27336 36028 ft 484 kts 245°
2026-05-06 22:22 34.84360 -115.34586 36012 ft 484 kts 244°
2026-05-06 22:22 34.81192 -115.41823 36022 ft 485 kts 244°
2026-05-06 22:23 34.78064 -115.49092 36025 ft 484 kts 247°
2026-05-06 22:23 34.75295 -115.56534 35729 ft 481 kts 250°
2026-05-06 22:24 34.73991 -115.60273 35483 ft 479 kts 250°
2026-05-06 22:24 34.72692 -115.63993 35240 ft 478 kts 250°
2026-05-06 22:24 34.71376 -115.67696 34986 ft 477 kts 249°
2026-05-06 22:24 34.70039 -115.71375 34749 ft 476 kts 249°
2026-05-06 22:25 34.68684 -115.75034 34509 ft 474 kts 249°
2026-05-06 22:25 34.67319 -115.78677 34276 ft 473 kts 248°
2026-05-06 22:25 34.65958 -115.82305 34044 ft 471 kts 249°
2026-05-06 22:25 34.64604 -115.85927 33773 ft 470 kts 249°
2026-05-06 22:26 34.63257 -115.89538 33512 ft 468 kts 249°
2026-05-06 22:26 34.61923 -115.93137 33243 ft 466 kts 249°
2026-05-06 22:26 34.60604 -115.96717 32964 ft 464 kts 249°
2026-05-06 22:26 34.59295 -116.00279 32701 ft 461 kts 249°
2026-05-06 22:27 34.57993 -116.03820 32441 ft 458 kts 249°
2026-05-06 22:27 34.56694 -116.07343 32190 ft 456 kts 249°
2026-05-06 22:27 34.55418 -116.10803 31938 ft 454 kts 249°
2026-05-06 22:27 34.54115 -116.14331 31683 ft 452 kts 249°
2026-05-06 22:28 34.52833 -116.17800 31446 ft 450 kts 248°
2026-05-06 22:28 34.51568 -116.21208 31203 ft 448 kts 248°
2026-05-06 22:28 34.50291 -116.24638 30939 ft 444 kts 248°
2026-05-06 22:28 34.49021 -116.28039 30511 ft 442 kts 248°
2026-05-06 22:29 34.47754 -116.31432 30088 ft 441 kts 248°
2026-05-06 22:29 34.46494 -116.34811 29635 ft 439 kts 248°
2026-05-06 22:29 34.45239 -116.38167 29245 ft 435 kts 248°
2026-05-06 22:29 34.43996 -116.41496 28842 ft 432 kts 248°
2026-05-06 22:30 34.42763 -116.44801 28462 ft 430 kts 248°
2026-05-06 22:30 34.41532 -116.48094 28081 ft 428 kts 248°
2026-05-06 22:30 34.40267 -116.51345 27687 ft 426 kts 246°
2026-05-06 22:30 34.38958 -116.54556 27288 ft 425 kts 245°
2026-05-06 22:31 34.37623 -116.57743 26880 ft 424 kts 245°
2026-05-06 22:31 34.36280 -116.60914 26483 ft 422 kts 245°
2026-05-06 22:31 34.35379 -116.63046 26207 ft 422 kts 245°
2026-05-06 22:31 34.34052 -116.66209 25794 ft 421 kts 245°
2026-05-06 22:32 34.32741 -116.69371 25362 ft 420 kts 246°
2026-05-06 22:32 34.31454 -116.72544 24938 ft 420 kts 246°
2026-05-06 22:32 34.30184 -116.75729 24503 ft 420 kts 247°
2026-05-06 22:32 34.28919 -116.78917 24054 ft 420 kts 247°
2026-05-06 22:33 34.27649 -116.82104 23608 ft 420 kts 246°
2026-05-06 22:33 34.26375 -116.85278 23111 ft 419 kts 246°
2026-05-06 22:33 34.25101 -116.88431 22663 ft 416 kts 246°
2026-05-06 22:33 34.23830 -116.91564 22224 ft 414 kts 246°
2026-05-06 22:34 34.22566 -116.94677 21778 ft 412 kts 246°
2026-05-06 22:34 34.21318 -116.97780 21333 ft 409 kts 249°
2026-05-06 22:34 34.20368 -117.00987 20902 ft 403 kts 256°
2026-05-06 22:34 34.19506 -117.04196 20452 ft 400 kts 255°
2026-05-06 22:35 34.18661 -117.07325 20037 ft 395 kts 255°
2026-05-06 22:35 34.17786 -117.10502 19622 ft 391 kts 255°
2026-05-06 22:35 34.16939 -117.13561 19226 ft 388 kts 255°
2026-05-06 22:35 34.16028 -117.16665 18825 ft 386 kts 252°
2026-05-06 22:36 34.15093 -117.19647 18460 ft 383 kts 252°
2026-05-06 22:36 34.14169 -117.22650 18024 ft 380 kts 253°
2026-05-06 22:36 34.13334 -117.25656 17579 ft 376 kts 255°
2026-05-06 22:36 34.12563 -117.28668 17001 ft 377 kts 256°
2026-05-06 22:37 34.11821 -117.31690 16552 ft 374 kts 256°
2026-05-06 22:37 34.11088 -117.34694 16110 ft 372 kts 256°
2026-05-06 22:37 34.10351 -117.37669 15675 ft 369 kts 256°
2026-05-06 22:37 34.09616 -117.40615 15276 ft 365 kts 256°
2026-05-06 22:38 34.08885 -117.43537 14864 ft 362 kts 256°
2026-05-06 22:38 34.08158 -117.46439 14470 ft 360 kts 256°
2026-05-06 22:38 34.07439 -117.49324 14061 ft 358 kts 256°
2026-05-06 22:38 34.06916 -117.52219 13819 ft 349 kts 261°
2026-05-06 22:39 34.06450 -117.55044 13646 ft 337 kts 261°
2026-05-06 22:39 34.05990 -117.57784 13077 ft 331 kts 261°
2026-05-06 22:39 34.05531 -117.60484 12434 ft 327 kts 261°
2026-05-06 22:39 34.05075 -117.63156 11801 ft 323 kts 261°
2026-05-06 22:40 34.04624 -117.65796 11189 ft 320 kts 261°
2026-05-06 22:40 34.04177 -117.68402 10617 ft 315 kts 261°
2026-05-06 22:40 34.03738 -117.70973 10101 ft 310 kts 261°
2026-05-06 22:40 34.03308 -117.73499 9615 ft 305 kts 261°
2026-05-06 22:41 34.02452 -117.78524 8848 ft 305 kts 261°
2026-05-06 22:41 34.02027 -117.81000 8325 ft 300 kts 261°
2026-05-06 22:41 34.01610 -117.83444 7804 ft 295 kts 261°
2026-05-06 22:42 34.01200 -117.85849 7352 ft 292 kts 261°
2026-05-06 22:42 34.00791 -117.88248 6914 ft 293 kts 261°
2026-05-06 22:42 34.00377 -117.90668 6462 ft 296 kts 260°
2026-05-06 22:42 33.99960 -117.93114 5994 ft 299 kts 260°
2026-05-06 22:43 33.99537 -117.95579 5541 ft 301 kts 261°
2026-05-06 22:43 33.99113 -117.98040 5081 ft 296 kts 260°
2026-05-06 22:43 33.98700 -118.00423 4640 ft 285 kts 260°
2026-05-06 22:43 33.98302 -118.02717 4246 ft 273 kts 259°
2026-05-06 22:44 33.97931 -118.04862 4183 ft 250 kts 259°
2026-05-06 22:44 33.97590 -118.06833 4097 ft 231 kts 259°
2026-05-06 22:44 33.97271 -118.08681 4007 ft 220 kts 261°
2026-05-06 22:44 33.96964 -118.10446 3908 ft 210 kts 259°
2026-05-06 22:45 33.96660 -118.12101 3844 ft 196 kts 255°
2026-05-06 22:45 33.96316 -118.13640 3741 ft 185 kts 260°
2026-05-06 22:45 33.96101 -118.15117 3660 ft 173 kts 263°
2026-05-06 22:45 33.95940 -118.16527 3579 ft 174 kts 264°
2026-05-06 22:46 33.95786 -118.18009 3403 ft 179 kts 265°
2026-05-06 22:46 33.95635 -118.19489 3198 ft 178 kts 265°
2026-05-06 22:46 33.95486 -118.20960 2961 ft 175 kts 264°
2026-05-06 22:46 33.95341 -118.22407 2733 ft 173 kts 263°
2026-05-06 22:47 33.95198 -118.23824 2504 ft 163 kts 261°
2026-05-06 22:47 33.95073 -118.25081 2299 ft 143 kts 262°
2026-05-06 22:47 33.94956 -118.26234 2120 ft 135 kts 261°
2026-05-06 22:47 33.94843 -118.27350 1948 ft 133 kts 261°
2026-05-06 22:48 33.94731 -118.28461 1764 ft 133 kts 261°
2026-05-06 22:48 33.94620 -118.29558 1572 ft 131 kts 261°
2026-05-06 22:48 33.94510 -118.30639 1412 ft 130 kts 261°
2026-05-06 22:48 33.94401 -118.31723 1240 ft 130 kts 260°
2026-05-06 22:49 33.94290 -118.32815 1058 ft 133 kts 262°
2026-05-06 22:49 33.94178 -118.33922 897 ft 133 kts 262°
2026-05-06 22:49 33.94066 -118.35040 694 ft 134 kts 262°
2026-05-06 22:49 33.93958 -118.36136 497 ft 130 kts 262°
2026-05-06 22:50 33.93841 -118.37217 321 ft 128 kts 261°
2026-05-06 22:50 33.93731 -118.38300 134 ft 130 kts 262°
2026-05-06 22:50 33.93634 -118.39259 93 ft 89 kts 263°
2026-05-06 22:50 33.93601 -118.39653 94 ft 31 kts 271°
2026-05-06 22:51 33.93629 -118.39870 96 ft 16 kts 290°
2026-05-06 22:51 33.93665 -118.39984 97 ft 9 kts 282°
2026-05-06 22:51 33.93664 -118.40069 99 ft 11 kts 261°
2026-05-06 22:51 33.93653 -118.40171 96 ft 14 kts 263°
2026-05-06 22:52 33.93641 -118.40293 96 ft 16 kts 263°
2026-05-06 22:52 33.93626 -118.40439 95 ft 19 kts 263°
2026-05-06 22:52 33.93609 -118.40604 94 ft 21 kts 263°
2026-05-06 22:52 33.93593 -118.40768 95 ft 18 kts 266°
2026-05-06 22:53 33.93620 -118.40874 95 ft 10 kts 302°
2026-05-06 22:53 33.93683 -118.40899 97 ft 8 kts 357°
2026-05-06 22:53 33.93737 -118.40906 94 ft 2 kts 352°
2026-05-06 22:53 33.93762 -118.40911 95 ft 5 kts 352°
2026-05-06 22:54 33.93788 -118.40882 94 ft 7 kts 78°
2026-05-06 22:54 33.93795 -118.40818 94 ft 9 kts 82°
2026-05-06 22:54 33.93804 -118.40735 94 ft 11 kts 83°
2026-05-06 22:54 33.93814 -118.40634 95 ft 13 kts 83°
2026-05-06 22:55 33.93826 -118.40516 95 ft 15 kts 83°
2026-05-06 22:55 33.93839 -118.40383 97 ft 17 kts 83°
2026-05-06 22:55 33.93855 -118.40237 97 ft 19 kts 83°
2026-05-06 22:55 33.93870 -118.40084 98 ft 12 kts 83°
2026-05-06 22:56 33.93928 -118.40050 95 ft 12 kts 354°
2026-05-06 22:56 33.94013 -118.40063 95 ft 10 kts 353°
2026-05-06 22:56 33.94042 -118.40067 96 ft 5 kts 353°
2026-05-06 22:56 33.94065 -118.40050 93 ft 4 kts 79°
2026-05-06 22:57 33.94069 -118.40023 93 ft 2 kts 80°
2026-05-06 22:57 33.94070 -118.40017 93 ft 0 kts 80°